Regional Weather Roundup
Issued by NWS

Home | Current Version | Previous Version | Text Only | Print | Product List | Glossary On
Versions: 1 2 3 4 5 6 7 8 9 10 11 12 13 14 15 16 17 18 19 20 21 22 23 24 25 26 27 28
000
ASUS45 KREV 291610
RWRNV
NEVADA REGIONAL WEATHER ROUNDUP
NATIONAL WEATHER SERVICE RENO NV
900 AM PDT SUN MAY 29 2016

NOTE: "FAIR" INDICATES FEW OR NO CLOUDS BELOW 12,000 FEET WITH NO
SIGNIFICANT WEATHER AND/OR OBSTRUCTIONS TO VISIBILITY.

NVZ001-003-004-291700-
WESTERN NEVADA

CITY           SKY/WX    TMP DP  RH WIND       PRES   REMARKS
RENO           MOSUNNY   64  38  38 CALM      30.10R
CARSON CITY    FAIR      59  39  47 W5        30.13R
MINDEN         FAIR      57  41  54 S6        30.12S
SLIDE MTN        N/A     48  32  53 CALM        N/A
FALLON         SUNNY     67  37  33 VRB3      30.07R
LOVELOCK       SUNNY     68  36  30 CALM      30.06S
HAWTHORNE      SUNNY     63  37  39 CALM      30.10R
$$

NVZ002-CAZ072-073-291700-
NORTHERN AND CENTRAL SIERRA

CITY           SKY/WX    TMP DP  RH WIND       PRES   REMARKS
S. LAKE TAHOE  SUNNY     56  37  49 CALM      30.17
SQUAW VLY 8000 NOT AVBL
SUSANVILLE     SUNNY     63  41  45 E3        30.09R
MAMMOTH LAKES  FAIR      55  42  61 SE5       30.22R
BRIDGEPORT     FAIR      51  36  56 CALM      30.17S
$$

NVZ030-031-036-291700-
NORTHERN NEVADA

CITY           SKY/WX    TMP DP  RH WIND       PRES   REMARKS
ELKO           MOSUNNY   60  43  53 CALM      30.13S
WINNEMUCCA     SUNNY     64  32  30 VRB3      30.08S
WENDOVER       SUNNY     66  37  34 SE5       30.11R
$$

NVZ035-037-291700-
CENTRAL NEVADA

CITY           SKY/WX    TMP DP  RH WIND       PRES   REMARKS
ELY            SUNNY     57  39  51 SE3       30.18S
EUREKA           N/A     60  40  47 CALM      30.14S
$$

NVZ013-014-291700-
SOUTH CENTRAL NEVADA

CITY           SKY/WX    TMP DP  RH WIND       PRES   REMARKS
TONOPAH        SUNNY     65  36  34 CALM      30.14R
$$

NVZ017-020-022-291700-
SOUTHERN NEVADA

CITY           SKY/WX    TMP DP  RH WIND       PRES   REMARKS
LAS VEGAS      MOSUNNY   80  27  14 E3        29.92R
N. LAS VEGAS   SUNNY     80  32  17 CALM      29.95R
NELLIS AFB     SUNNY     81  31  16 S6        29.93R
HENDERSON      SUNNY     80  31  16 VRB3      29.98R
MERCURY        SUNNY     79  31  17 NE8       30.00R
$$




USA.gov is the U.S. government's official web portal to all federal, state and local government web resources and services.